• In Germany
  • List of Countries
  • For 7 days
  • Water Temperature
  • Satellite Maps
  • Weather Map
  • Weather Widgets
  • user-avatar
    Login

    Hourly Weather Biskira

    Today, 27 May, Sunday

    Time Temperature Precipitation Wind Pressure Humidity
    00:00 +33°C° 0 mm 3 mps 752 mmHg 27%
    01:00 +32°C° 0 mm 4 mps 752 mmHg 30%
    02:00 +30°C° 0 mm 4 mps 752 mmHg 33%
    03:00 +30°C° 0 mm 5 mps 752 mmHg 35%
    04:00 +30°C° 0 mm 5 mps 752 mmHg 35%
    05:00 +30°C° 0 mm 5 mps 752 mmHg 35%
    06:00 +30°C° 0 mm 5 mps 752 mmHg 36%
    07:00 +32°C° 0.1 mm 5 mps 752 mmHg 32%
    08:00 +33°C° 0.1 mm 5 mps 752 mmHg 29%
    09:00 +34°C° 0.1 mm 5 mps 752 mmHg 25%
    10:00 +35°C° 0 mm 6 mps 752 mmHg 23%
    11:00 +38°C° 0 mm 6 mps 752 mmHg 20%
    12:00 +39°C° 0 mm 6 mps 752 mmHg 18%
    13:00 +39°C° 0 mm 6 mps 751 mmHg 17%
    14:00 +40°C° 0 mm 6 mps 750 mmHg 16%
    15:00 +40°C° 0 mm 6 mps 750 mmHg 15%
    16:00 +40°C° 0 mm 6 mps 749 mmHg 16%
    17:00 +40°C° 0 mm 6 mps 749 mmHg 17%
    18:00 +39°C° 0 mm 7 mps 749 mmHg 17%
    19:00 +38°C° 0 mm 7 mps 749 mmHg 19%
    20:00 +36°C° 0 mm 7 mps 749 mmHg 20%
    21:00 +35°C° 0 mm 7 mps 749 mmHg 22%
    22:00 +35°C° 0 mm 7 mps 749 mmHg 25%
    23:00 +34°C° 0 mm 6 mps 749 mmHg 27%

    Tomorrow, 28 May, Monday

    Time Temperature Precipitation Wind Pressure Humidity
    00:00 +33°C° 0 mm 6 mps 749 mmHg 30%
    01:00 +32°C° 0 mm 7 mps 749 mmHg 31%
    02:00 +32°C° 0 mm 7 mps 749 mmHg 32%
    03:00 +30°C° 0 mm 7 mps 748 mmHg 34%
    04:00 +31°C° 0 mm 8 mps 748 mmHg 32%
    05:00 +31°C° 0 mm 8 mps 748 mmHg 31%
    06:00 +31°C° 0 mm 9 mps 748 mmHg 30%
    07:00 +33°C° 0 mm 9 mps 748 mmHg 28%
    08:00 +34°C° 0 mm 10 mps 748 mmHg 27%
    09:00 +36°C° 0 mm 10 mps 748 mmHg 25%
    10:00 +37°C° 0 mm 10 mps 747 mmHg 23%
    11:00 +39°C° 0 mm 10 mps 747 mmHg 21%
    12:00 +40°C° 0 mm 9 mps 747 mmHg 19%
    13:00 +42°C° 0 mm 9 mps 746 mmHg 16%
    14:00 +44°C° 0 mm 8 mps 746 mmHg 12%
    15:00 +45°C° 0 mm 8 mps 745 mmHg 8%
    16:00 +44°C° 0 mm 7 mps 745 mmHg 9%
    17:00 +42°C° 0 mm 6 mps 745 mmHg 10%
    18:00 +41°C° 0 mm 6 mps 746 mmHg 11%
    19:00 +39°C° 0 mm 6 mps 747 mmHg 19%
    20:00 +36°C° 0 mm 7 mps 747 mmHg 27%
    21:00 +34°C° 0 mm 7 mps 748 mmHg 35%
    22:00 +33°C° 0 mm 7 mps 748 mmHg 38%
    23:00 +32°C° 0 mm 7 mps 749 mmHg 42%

    Day after tomorrow, 29 May, Tuesday

    Time Temperature Precipitation Wind Pressure Humidity
    00:00 +30°C° 0 mm 6 mps 749 mmHg 45%
    01:00 +29°C° 0 mm 6 mps 749 mmHg 47%
    02:00 +28°C° 0 mm 7 mps 749 mmHg 50%
    03:00 +28°C° 0 mm 7 mps 748 mmHg 52%
    04:00 +28°C° 0 mm 7 mps 749 mmHg 51%
    05:00 +28°C° 0 mm 6 mps 749 mmHg 51%
    06:00 +28°C° 0 mm 6 mps 749 mmHg 50%
    07:00 +29°C° 0 mm 6 mps 749 mmHg 45%
    08:00 +32°C° 0 mm 6 mps 749 mmHg 40%
    09:00 +33°C° 0 mm 5 mps 749 mmHg 35%
    10:00 +34°C° 0 mm 5 mps 749 mmHg 30%
    11:00 +35°C° 0 mm 5 mps 749 mmHg 25%
    12:00 +37°C° 0 mm 5 mps 748 mmHg 20%
    13:00 +37°C° 0 mm 5 mps 748 mmHg 18%
    14:00 +39°C° 0 mm 6 mps 748 mmHg 17%
    15:00 +39°C° 0 mm 6 mps 747 mmHg 15%
    16:00 +39°C° 0 mm 5 mps 747 mmHg 17%
    17:00 +37°C° 0 mm 5 mps 748 mmHg 19%
    18:00 +37°C° 0 mm 4 mps 748 mmHg 20%
    19:00 +36°C° 0 mm 4 mps 748 mmHg 24%
    20:00 +35°C° 0 mm 3 mps 748 mmHg 28%
    21:00 +34°C° 0 mm 3 mps 749 mmHg 32%
    22:00 +33°C° 0 mm 3 mps 749 mmHg 36%
    23:00 +32°C° 0 mm 4 mps 748 mmHg 40%

    30 May, Wednesday

    Time Temperature Precipitation Wind Pressure Humidity
    00:00 +32°C° 0 mm 4 mps 748 mmHg 43%
    01:00 +30°C° 0 mm 4 mps 748 mmHg 45%
    02:00 +30°C° 0 mm 3 mps 747 mmHg 46%
    03:00 +29°C° 0 mm 3 mps 747 mmHg 48%
    04:00 +29°C° 0 mm 3 mps 748 mmHg 47%
    05:00 +29°C° 0 mm 3 mps 748 mmHg 47%
    06:00 +29°C° 0 mm 2 mps 748 mmHg 46%
    07:00 +30°C° 0 mm 3 mps 749 mmHg 43%
    08:00 +33°C° 0 mm 3 mps 749 mmHg 40%
    09:00 +34°C° 0 mm 4 mps 749 mmHg 37%
    10:00 +35°C° 0 mm 4 mps 749 mmHg 33%
    11:00 +36°C° 0 mm 5 mps 748 mmHg 29%
    12:00 +37°C° 0 mm 5 mps 748 mmHg 25%
    13:00 +39°C° 0 mm 6 mps 748 mmHg 24%
    14:00 +40°C° 0 mm 6 mps 747 mmHg 22%
    15:00 +40°C° 0 mm 6 mps 747 mmHg 20%
    16:00 +40°C° 0 mm 6 mps 747 mmHg 20%
    17:00 +39°C° 0 mm 6 mps 747 mmHg 20%
    18:00 +39°C° 0 mm 5 mps 747 mmHg 20%
    19:00 +38°C° 0 mm 6 mps 747 mmHg 22%
    20:00 +36°C° 0 mm 6 mps 747 mmHg 24%
    21:00 +35°C° 0 mm 6 mps 748 mmHg 26%
    22:00 +34°C° 0 mm 5 mps 748 mmHg 29%
    23:00 +33°C° 0 mm 5 mps 748 mmHg 32%

    31 May, Thursday

    Time Temperature Precipitation Wind Pressure Humidity
    00:00 +32°C° 0 mm 5 mps 748 mmHg 36%
    01:00 +30°C° 0 mm 4 mps 748 mmHg 39%
    02:00 +30°C° 0 mm 4 mps 748 mmHg 42%
    03:00 +29°C° 0 mm 3 mps 749 mmHg 45%
    04:00 +29°C° 0 mm 3 mps 749 mmHg 46%
    05:00 +28°C° 0 mm 3 mps 749 mmHg 48%
    06:00 +28°C° 0 mm 3 mps 750 mmHg 50%
    07:00 +29°C° 0 mm 3 mps 750 mmHg 45%
    08:00 +31°C° 0 mm 2 mps 750 mmHg 40%
    09:00 +32°C° 0 mm 2 mps 750 mmHg 35%
    10:00 +34°C° 0 mm 2 mps 750 mmHg 31%
    11:00 +35°C° 0 mm 3 mps 750 mmHg 27%
    12:00 +36°C° 0 mm 3 mps 749 mmHg 23%
    13:00 +36°C° 0 mm 3 mps 749 mmHg 22%
    14:00 +37°C° 0 mm 2 mps 749 mmHg 20%
    15:00 +37°C° 0 mm 2 mps 748 mmHg 19%
    16:00 +37°C° 0 mm 2 mps 749 mmHg 19%
    17:00 +37°C° 0 mm 2 mps 749 mmHg 20%
    18:00 +37°C° 0 mm 2 mps 749 mmHg 20%
    19:00 +36°C° 0.1 mm 2 mps 750 mmHg 22%
    20:00 +35°C° 0.1 mm 2 mps 750 mmHg 25%
    21:00 +35°C° 0.1 mm 2 mps 751 mmHg 27%
    22:00 +34°C° 0 mm 3 mps 751 mmHg 30%
    23:00 +33°C° 0 mm 3 mps 751 mmHg 33%

    1 June, Friday

    Time Temperature Precipitation Wind Pressure Humidity
    00:00 +32°C° 0 mm 4 mps 751 mmHg 36%
    01:00 +31°C° 0 mm 3 mps 751 mmHg 38%
    02:00 +30°C° 0 mm 3 mps 751 mmHg 39%
    03:00 +29°C° 0 mm 2 mps 751 mmHg 41%
    04:00 +29°C° 0 mm 2 mps 751 mmHg 40%
    05:00 +29°C° 0 mm 1 mps 752 mmHg 40%
    06:00 +29°C° 0 mm 1 mps 752 mmHg 39%
    07:00 +30°C° 0 mm 1 mps 752 mmHg 36%
    08:00 +31°C° 0 mm 2 mps 752 mmHg 33%
    09:00 +32°C° 0 mm 2 mps 752 mmHg 30%
    10:00 +34°C° 0 mm 2 mps 752 mmHg 28%
    11:00 +35°C° 0 mm 2 mps 751 mmHg 25%
    12:00 +36°C° 0 mm 2 mps 751 mmHg 23%
    13:00 +37°C° 0 mm 3 mps 750 mmHg 21%
    14:00 +37°C° 0 mm 3 mps 750 mmHg 20%
    15:00 +38°C° 0 mm 3 mps 750 mmHg 18%
    16:00 +38°C° 0 mm 3 mps 750 mmHg 18%
    17:00 +38°C° 0 mm 3 mps 750 mmHg 18%
    18:00 +38°C° 0 mm 4 mps 750 mmHg 18%
    19:00 +37°C° 0 mm 4 mps 751 mmHg 20%
    20:00 +36°C° 0 mm 3 mps 751 mmHg 21%
    21:00 +35°C° 0 mm 3 mps 752 mmHg 23%
    22:00 +34°C° 0 mm 3 mps 752 mmHg 25%
    23:00 +34°C° 0 mm 3 mps 752 mmHg 28%
    Show more